TimeCST,TemperatureF,Dew PointF,Humidity,Sea Level PressureIn,VisibilityMPH,Wind Direction,Wind SpeedMPH,Gust SpeedMPH,PrecipitationIn,Events,Conditions,WindDirDegrees,DateUTC
12:54 AM,39.0,30.0,70,30.44,10.0,SSE,6.9,-,N/A,,Clear,150,2012-11-17 06:54:00
1:54 AM,37.0,30.0,76,30.45,9.0,SSE,5.8,-,N/A,,Clear,150,2012-11-17 07:54:00
2:54 AM,36.0,28.9,76,30.45,9.0,SSE,5.8,-,N/A,,Clear,150,2012-11-17 08:54:00
3:54 AM,35.6,28.4,75,30.44,9.0,SSE,6.9,-,N/A,,Clear,150,2012-11-17 09:54:00
4:54 AM,37.0,28.9,73,30.46,9.0,SSE,3.5,-,N/A,,Clear,160,2012-11-17 10:54:00
5:54 AM,35.1,28.0,76,30.47,8.0,SSE,6.9,-,N/A,,Clear,150,2012-11-17 11:54:00
6:54 AM,35.1,28.0,76,30.48,7.0,SE,8.1,-,N/A,,Clear,140,2012-11-17 12:54:00
7:54 AM,37.9,28.9,70,30.49,7.0,SSE,4.6,-,N/A,,Clear,160,2012-11-17 13:54:00
8:54 AM,44.1,32.0,63,30.50,7.0,South,6.9,-,N/A,,Clear,180,2012-11-17 14:54:00
9:54 AM,46.9,30.9,54,30.49,7.0,South,11.5,-,N/A,,Clear,170,2012-11-17 15:54:00
10:54 AM,51.1,30.9,46,30.48,10.0,SSE,10.4,-,N/A,,Clear,160,2012-11-17 16:54:00
11:54 AM,54.0,28.9,38,30.45,10.0,South,9.2,-,N/A,,Clear,180,2012-11-17 17:54:00
12:54 PM,55.0,28.9,37,30.43,10.0,SSE,8.1,-,N/A,,Clear,160,2012-11-17 18:54:00
1:54 PM,57.0,30.0,36,30.41,10.0,South,8.1,-,N/A,,Clear,170,2012-11-17 19:54:00
2:54 PM,57.0,28.0,33,30.40,10.0,SSE,9.2,-,N/A,,Clear,160,2012-11-17 20:54:00
3:54 PM,54.0,30.9,41,30.40,10.0,SE,6.9,-,N/A,,Clear,130,2012-11-17 21:54:00
4:54 PM,48.9,30.0,48,30.39,10.0,SE,9.2,-,N/A,,Clear,130,2012-11-17 22:54:00
5:54 PM,46.0,28.9,51,30.39,10.0,SE,8.1,-,N/A,,Clear,130,2012-11-17 23:54:00
6:54 PM,46.0,30.0,54,30.39,10.0,ESE,6.9,-,N/A,,Clear,120,2012-11-18 00:54:00
7:54 PM,42.1,30.0,62,30.40,10.0,SE,8.1,-,N/A,,Clear,130,2012-11-18 01:54:00
8:54 PM,39.9,30.0,68,30.40,10.0,SE,6.9,-,N/A,,Clear,130,2012-11-18 02:54:00
9:54 PM,39.0,30.0,70,30.40,9.0,SE,8.1,-,N/A,,Clear,130,2012-11-18 03:54:00
10:54 PM,36.0,30.0,79,30.39,8.0,SE,8.1,-,N/A,,Clear,140,2012-11-18 04:54:00
11:54 PM,39.9,32.0,73,30.38,8.0,SSE,8.1,-,N/A,,Clear,150,2012-11-18 05:54:00